P/L 153 DEB, 19245

Orbit data source: Space-Track

P/L 153 DEB, 19245 is space debris in LEO originally from a launch on Wed, 31 May 1967 UTC launched from the Air Force Western Test Range (AFWTR). Debris objects in space refer to the collection of defunct objects orbiting the Earth. Examples of debris include non-operational satellites, rocket bodies, and fragments generated from explosions, collisions, or faulty payload assembly.

Loading next visibility...
Identifier
19245, 1967-053K
Orbit
LEO
Country
Flag of USUS
Related business
Manufacturer
Unknown
Mission
Spacecraft
Bus & Motor
Unknown
Mass
Unknown
Launch date (UTC)
1967-05-31 (58 years ago)
Launch vehicle
Unknown
Launch site
Air Force Western Test Range (AFWTR)
Object type
Payload
Rocket body
Debris
Shape & HBR
Unknown
Radar Cross Section
Small (<0.1 m²)

Expand to show TLE details & history
Last TLE update: 1 day ago

TLE from 1 day ago
0 P/L 153 DEB
1 19245U 67053K   25261.02943434  .00000756  00000-0  36455-3 0  9991
2 19245  69.9559 227.3157 0002539 190.8868 239.3984 14.22461858991594
Epoch: 2025-09-18T00:42Z
TLE epoch observation values (Epoch: 2025-09-18T00:42:23.126Z)
Latitude
62.2652°
Longitude
-96.82961°
Altitude
828.033 km
Speed
7.445 km/s
True Right ascension
18h 03m 51s
True Declination
62° 07' 29"
Sunlit
Object was in daylight at epoch
Visualization orbit readout
Latitude
Unknown
Longitude
Unknown
Altitude
Unknown
Speed
Unknown
Apparent Right ascension
Unknown
Apparent Declination
Unknown
Sunlit
N/A
Visualization observer readout
Local Sidereal Time
18:02:55
Azimuth
Unknown
Elevation
Unknown
Doppler factor
Unknown
Orbital elements
Apogee altitude
816.888 km
Perigee altitude
813.236 km
Semi-major axis
7,193.199 km
Eccentricity
0.00025
Inclination
69.9559°
RAAN
227.3157°
Arg. of periapsis
190.8868°
True anomaly
239.37336°
Mean anomaly
239.3984°
Eccentric anomaly
239.38588°
Mean motion
3.55762 °/min
Orbital period
101.19 mins
BSTAR
0.00036455
Loading maneuver chart data...
Computing Atmospheric mass density...
Loading historical data...
Loading historical data...
Loading historical data...
Loading historical data...
Loading historical data...
Loading historical data...
Loading historical data...

Documentation

Showing up to 5 results
|